Weather History for KBKN - December, 2012

Change the Weather History Date:

Wednesday, December 12, 2012

  Actual Average (KPNC) Record (KPNC)
Temperature  
Mean Temperature 38 °F -  
Max Temperature 53 °F 52 °F 65 °F (1948)
Min Temperature 23 °F 30 °F 2 °F (1962)
Degree Days  
Heating Degree Days 27    
Moisture  
Dew Point 13 °F    
Average Humidity 39    
Maximum Humidity 59    
Minimum Humidity 19    
Precipitation  
Precipitation 0.00 in - - ()
Sea Level Pressure  
Sea Level Pressure 30.13 in    
Wind  
Wind Speed 10 mph (SSE)    
Max Wind Speed 25 mph    
Max Gust Speed 33 mph    
Visibility 10 miles    
Events      
Averages and records for this station are not official NWS values.
T = Trace of Precipitation, MM = Missing Value Source: NWS Daily Summary

Daily Weather History Graph

Daily Weather History Graph

Search for Another Location

Airport or City:

Trip Planner

Search our weather history database for the weather conditions in past years. The results will help you decide how hot, cold, wet, or windy it might be!

Date:

Astronomy

Dec. 12, 2012 Rise Set
Actual Time 7:32 AM CST 5:13 PM CST
Civil Twilight 7:04 AM CST 5:42 PM CST
Nautical Twilight 6:31 AM CST 6:15 PM CST
Astronomical Twilight 6:00 AM CST 6:46 PM CST
Moon 6:39 AM CST (12/12) 4:51 PM CST (12/12)
Length of Visible Light 10h 38m
Length of Day
9h 40m
Waning Crescent, 1% of the Moon is Illuminated
Dec 12
Waning Crescent
Dec 13
New
Dec 19
First Quarter
Dec 28
Full
Jan 4
Last Quarter

Hourly Weather History & Observations

Time (CST) Temp. Windchill Dew Point Humidity Pressure Visibility Wind Dir Wind Speed Gust Speed Precip Events Conditions
12:15 AM 28.4 °F 21.2 °F 12.2 °F 51% 30.15 in 10.0 mi South 6.9 mph - N/A   Clear
12:35 AM 28.4 °F 20.4 °F 12.2 °F 51% 30.15 in 10.0 mi SSW 8.1 mph - N/A   Clear
12:55 AM 28.4 °F 20.4 °F 12.2 °F 51% 30.15 in 10.0 mi South 8.1 mph - N/A   Clear
1:15 AM 26.6 °F 21.2 °F 12.2 °F 55% 30.14 in 10.0 mi SSW 4.6 mph - N/A   Clear
1:35 AM 26.6 °F 18.2 °F 12.2 °F 55% 30.14 in 10.0 mi South 8.1 mph - N/A   Clear
1:55 AM 28.4 °F 19.7 °F 12.2 °F 51% 30.14 in 10.0 mi South 9.2 mph - N/A   Clear
2:15 AM 26.6 °F 18.2 °F 12.2 °F 55% 30.14 in 10.0 mi South 8.1 mph - N/A   Clear
2:35 AM 26.6 °F 17.5 °F 12.2 °F 55% 30.14 in 10.0 mi South 9.2 mph - N/A   Clear
2:55 AM 26.6 °F 18.2 °F 12.2 °F 55% 30.14 in 10.0 mi South 8.1 mph - N/A   Clear
3:15 AM 26.6 °F 17.5 °F 12.2 °F 55% 30.14 in 10.0 mi South 9.2 mph - N/A   Clear
3:35 AM 26.6 °F 21.2 °F 12.2 °F 55% 30.15 in 10.0 mi SSE 4.6 mph - N/A   Clear
3:55 AM 26.6 °F 22.6 °F 12.2 °F 55% 30.15 in 10.0 mi SE 3.5 mph - N/A   Clear
4:15 AM 26.6 °F - 12.2 °F 55% 30.15 in 10.0 mi Calm Calm - N/A   Clear
4:35 AM 24.8 °F 20.5 °F 12.2 °F 59% 30.15 in 10.0 mi SSE 3.5 mph - N/A   Clear
4:55 AM 23.0 °F - 10.4 °F 59% 30.15 in 10.0 mi Calm Calm - N/A   Clear
5:15 AM 24.8 °F 20.5 °F 12.2 °F 59% 30.15 in 10.0 mi ESE 3.5 mph - N/A   Clear
5:35 AM 23.0 °F 17.0 °F 10.4 °F 59% 30.15 in 10.0 mi SE 4.6 mph - N/A   Clear
6:15 AM 24.8 °F 20.5 °F 10.4 °F 54% 30.16 in 10.0 mi SE 3.5 mph - N/A   Clear
6:35 AM 24.8 °F 19.1 °F 10.4 °F 54% 30.16 in 10.0 mi SE 4.6 mph - N/A   Clear
6:55 AM 23.0 °F 15.8 °F 10.4 °F 59% 30.16 in 10.0 mi SE 5.8 mph - N/A   Clear
7:15 AM 23.0 °F 15.8 °F 10.4 °F 59% 30.17 in 10.0 mi SE 5.8 mph - N/A   Clear
7:35 AM 24.8 °F 16.1 °F 10.4 °F 54% 30.16 in 10.0 mi SSE 8.1 mph - N/A   Clear
7:55 AM 26.6 °F 19.1 °F 10.4 °F 51% 30.18 in 10.0 mi South 6.9 mph - N/A   Clear
8:15 AM 26.6 °F 17.5 °F 10.4 °F 51% 30.18 in 10.0 mi SSE 9.2 mph - N/A   Clear
8:35 AM 28.4 °F 20.4 °F 12.2 °F 51% 30.19 in 10.0 mi SSE 8.1 mph - N/A   Clear
8:55 AM 32.0 °F 23.6 °F 12.2 °F 44% 30.19 in 10.0 mi South 10.4 mph - N/A   Clear
9:15 AM 33.8 °F 25.8 °F 12.2 °F 41% 30.20 in 10.0 mi South 10.4 mph - N/A   Clear
9:35 AM 37.4 °F 28.9 °F 10.4 °F 33% 30.20 in 10.0 mi South 13.8 mph - N/A   Clear
9:55 AM 39.2 °F 30.2 °F 10.4 °F 31% 30.21 in 10.0 mi South 17.3 mph - N/A   Clear
10:15 AM 41.0 °F 31.4 °F 8.6 °F 26% 30.20 in 10.0 mi South 21.9 mph - N/A   Clear
10:55 AM 44.6 °F 37.2 °F 8.6 °F 23% 30.18 in 10.0 mi South 17.3 mph - N/A   Clear
11:15 AM 46.4 °F 39.0 °F 8.6 °F 22% 30.18 in 10.0 mi South 19.6 mph 27.6 mph N/A   Clear
11:35 AM 48.2 °F - 8.6 °F 20% 30.17 in 10.0 mi South 21.9 mph 28.8 mph N/A   Clear
11:55 AM 48.2 °F - 10.4 °F 22% 30.15 in 10.0 mi South 23.0 mph 29.9 mph N/A   Clear
12:15 PM 50.0 °F - 10.4 °F 20% 30.14 in 10.0 mi South 21.9 mph 26.5 mph N/A   Clear
12:35 PM 50.0 °F - 10.4 °F 20% 30.13 in 10.0 mi South 25.3 mph - N/A   Clear
12:55 PM 51.8 °F - 10.4 °F 19% 30.12 in 10.0 mi South 23.0 mph 31.1 mph N/A   Clear
1:15 PM 51.8 °F - 12.2 °F 21% 30.11 in 10.0 mi South 25.3 mph 32.2 mph N/A   Clear
1:55 PM 53.6 °F - 14.0 °F 21% 30.10 in 10.0 mi South 23.0 mph 31.1 mph N/A   Clear
2:15 PM 53.6 °F - 14.0 °F 21% 30.09 in 10.0 mi South 25.3 mph 33.4 mph N/A   Clear
2:35 PM 53.6 °F - 14.0 °F 21% 30.09 in 10.0 mi South 25.3 mph 28.8 mph N/A   Clear
2:55 PM 53.6 °F - 14.0 °F 21% 30.09 in 10.0 mi South 24.2 mph 28.8 mph N/A   Clear
3:15 PM 53.6 °F - 14.0 °F 21% 30.09 in 10.0 mi South 21.9 mph 27.6 mph N/A   Clear
3:35 PM 53.6 °F - 14.0 °F 21% 30.08 in 10.0 mi South 20.7 mph 26.5 mph N/A   Clear
3:55 PM 53.6 °F - 14.0 °F 21% 30.08 in 10.0 mi South 17.3 mph - N/A   Clear
4:15 PM 53.6 °F - 14.0 °F 21% 30.08 in 10.0 mi South 19.6 mph 24.2 mph N/A   Clear
4:35 PM 51.8 °F - 14.0 °F 22% 30.07 in 10.0 mi SSE 18.4 mph 24.2 mph N/A   Clear
4:55 PM 50.0 °F - 14.0 °F 24% 30.07 in 10.0 mi SSE 18.4 mph 23.0 mph N/A   Clear
5:15 PM 48.2 °F - 14.0 °F 25% 30.07 in 10.0 mi SSE 13.8 mph - N/A   Clear
5:35 PM 46.4 °F 41.5 °F 14.0 °F 27% 30.07 in 10.0 mi SSE 10.4 mph - N/A   Clear
5:55 PM 46.4 °F 41.1 °F 14.0 °F 27% 30.07 in 10.0 mi SSE 11.5 mph - N/A   Clear
6:55 PM 41.0 °F 35.2 °F 14.0 °F 33% 30.09 in 10.0 mi SSE 9.2 mph - N/A   Clear
7:15 PM 39.2 °F 33.0 °F 14.0 °F 36% 30.09 in 10.0 mi SSE 9.2 mph - N/A   Clear
7:55 PM 39.2 °F 33.0 °F 15.8 °F 39% 30.10 in 10.0 mi SSE 9.2 mph - N/A   Clear
8:15 PM 39.2 °F 32.0 °F 15.8 °F 39% 30.10 in 10.0 mi SSE 11.5 mph - N/A   Clear
8:35 PM 39.2 °F 32.0 °F 15.8 °F 39% 30.10 in 10.0 mi SE 11.5 mph - N/A   Partly Cloudy
8:55 PM 39.2 °F 31.6 °F 15.8 °F 39% 30.10 in 10.0 mi SSE 12.7 mph - N/A   Partly Cloudy
9:15 PM 39.2 °F 31.6 °F 15.8 °F 39% 30.10 in 10.0 mi SSE 12.7 mph - N/A   Scattered Clouds
9:35 PM 39.2 °F 31.2 °F 15.8 °F 39% 30.10 in 10.0 mi SSE 13.8 mph - N/A   Mostly Cloudy
9:55 PM 39.2 °F 31.6 °F 15.8 °F 39% 30.09 in 10.0 mi SSE 12.7 mph - N/A   Partly Cloudy
10:15 PM 37.4 °F 29.8 °F 15.8 °F 41% 30.09 in 10.0 mi SSE 11.5 mph - N/A   Partly Cloudy
10:35 PM 37.4 °F 29.8 °F 15.8 °F 41% 30.10 in 10.0 mi SSE 11.5 mph - N/A   Partly Cloudy
10:55 PM 37.4 °F 29.8 °F 15.8 °F 41% 30.10 in 10.0 mi SSE 11.5 mph - N/A   Partly Cloudy
11:15 PM 39.2 °F 32.0 °F 15.8 °F 39% 30.10 in 10.0 mi SSE 11.5 mph - N/A   Clear
11:35 PM 37.4 °F 29.8 °F 15.8 °F 41% 30.10 in 10.0 mi SSE 11.5 mph - N/A   Partly Cloudy
11:55 PM 37.4 °F 29.8 °F 15.8 °F 41% 30.10 in 10.0 mi SSE 11.5 mph - N/A   Partly Cloudy